TimeCST,TemperatureF,Dew PointF,Humidity,Sea Level PressureIn,VisibilityMPH,Wind Direction,Wind SpeedMPH,Gust SpeedMPH,PrecipitationIn,Events,Conditions,WindDirDegrees,DateUTC
12:52 AM,24.1,15.1,69,30.15,10.0,WNW,3.5,-,N/A,,Overcast,290,2013-02-06 06:52:00
1:52 AM,23.0,15.1,72,30.17,9.0,Calm,Calm,-,N/A,,Overcast,0,2013-02-06 07:52:00
2:52 AM,21.0,14.0,74,30.17,9.0,Calm,Calm,-,N/A,,Overcast,0,2013-02-06 08:52:00
3:28 AM,15.8,12.2,86,30.12,8.0,NNW,3.5,-,N/A,,Scattered Clouds,330,2013-02-06 09:28:00
3:52 AM,14.0,10.9,88,30.19,8.0,Calm,Calm,-,N/A,,Clear,0,2013-02-06 09:52:00
4:52 AM,12.0,9.0,88,30.22,7.0,WSW,3.5,-,N/A,,Clear,240,2013-02-06 10:52:00
5:52 AM,9.0,6.1,88,30.23,5.0,Calm,Calm,-,N/A,,Clear,0,2013-02-06 11:52:00
7:52 AM,10.9,9.0,92,30.25,8.0,SW,3.5,-,N/A,,Clear,230,2013-02-06 13:52:00
8:52 AM,16.0,12.9,88,30.26,8.0,Calm,Calm,-,N/A,,Clear,0,2013-02-06 14:52:00
9:52 AM,25.0,15.1,66,30.25,8.0,South,4.6,-,N/A,,Clear,190,2013-02-06 15:52:00
10:52 AM,28.0,17.1,63,30.27,8.0,South,8.1,-,N/A,,Clear,180,2013-02-06 16:52:00
11:52 AM,30.9,19.9,64,30.24,7.0,South,8.1,17.3,0.02,,Clear,180,2013-02-06 17:52:00
12:52 PM,32.0,19.9,61,30.22,7.0,South,9.2,-,N/A,,Clear,190,2013-02-06 18:52:00
1:52 PM,34.0,19.9,56,30.20,7.0,South,10.4,-,N/A,,Clear,190,2013-02-06 19:52:00
2:52 PM,34.0,21.0,59,30.20,7.0,SSW,9.2,-,N/A,,Mostly Cloudy,210,2013-02-06 20:52:00
3:52 PM,33.1,27.0,78,30.21,5.0,Calm,Calm,-,N/A,,Haze,0,2013-02-06 21:52:00
4:52 PM,33.1,26.1,75,30.21,5.0,Calm,Calm,-,N/A,,Haze,0,2013-02-06 22:52:00
5:52 PM,32.0,27.0,82,30.19,6.0,ESE,4.6,-,0.01,,Haze,110,2013-02-06 23:52:00
6:52 PM,33.1,28.0,82,30.18,6.0,SE,4.6,-,N/A,,Haze,130,2013-02-07 00:52:00
7:52 PM,33.1,28.0,82,30.17,6.0,SE,4.6,-,N/A,,Haze,140,2013-02-07 01:52:00
8:52 PM,34.0,28.9,82,30.18,6.0,SE,6.9,-,N/A,,Haze,140,2013-02-07 02:52:00